[[{"header":{"parameterUnit":"m.s-1","parameterCategory":1,"la1":30.2991,"la2":30.254,"lo1":-89.0895,"lo2":-89.0444,"dy":0.0017,"dx":0.0017,"nx":28,"ny":28,"refTime":"2026-02-08T09:00:00:Z","depth":0,"parameterNumber":2,"parameterNumberName":"U-component_of_WINDS"},"data":[0,0,0,0,0,0,0,0,0,0,0,0,0,0,0,0,0,0,0,0,0,0,0,0,0,0,0,0,0,0,0,0,0,0,0,0,0,0,0,0,0,0,0,0,0,0,0,0,0,0,0,0,0,0,0,0,0,0,-1.4037,-1.4037,0,-1.4029,-1.4029,-1.4029,-1.398,-1.3978,-1.3977,-1.3976,-1.3969,-1.397,-1.3971,0,0,0,0,0,0,0,0,0,0,0,0,0,-1.401,-1.4011,-1.4037,-1.4037,-1.4037,-1.4029,-1.4029,-1.4029,-1.398,-1.3978,-1.3977,-1.3976,-1.3969,-1.397,-1.3971,0,0,0,0,0,0,0,0,0,0,0,0,0,-1.4014,-1.4011,-1.4037,-1.4011,-1.4009,-1.4029,-1.4029,-1.4029,-1.398,-1.3978,-1.3977,-1.3975,-1.3968,-1.3969,-1.3971,-1.4016,0,0,-1.3975,-1.3976,0,0,0,0,0,0,0,0,-1.4014,-1.4015,-1.4015,-1.4013,-1.4011,-1.4004,-1.4017,-1.4025,-1.3981,-1.3991,-1.3976,-1.3974,-1.3982,-1.3982,-1.3985,-1.4015,-1.4015,-1.3975,-1.3976,-1.3977,-1.3977,0,0,0,0,0,0,0,-1.4014,-1.4015,-1.4034,-1.4015,-1.4013,-1.4,-1.3999,-1.4018,-1.3997,-1.399,-1.3986,-1.3986,-1.398,-1.3983,-1.3984,-1.4015,-1.3975,-1.3976,-1.3977,-1.3978,-1.4081,-1.4083,0,0,0,0,0,0,-1.4017,-1.4015,-1.4034,-1.4034,-1.4008,-1.4002,-1.4001,-1.4008,-1.3996,-1.3993,-1.3988,-1.3984,-1.3982,-1.3982,-1.3984,-1.4034,-1.3977,-1.3978,-1.3979,-1.4079,-1.4081,-1.4083,0,0,0,0,0,0,-1.4016,-1.4019,-1.4035,-1.4024,-1.4025,-1.4005,-1.4013,-1.4009,-1.4011,-1.3995,-1.3991,-1.3995,-1.398,-1.3982,-1.4008,-1.4033,-1.3979,-1.398,-1.4077,-1.408,-1.4082,-1.4136,0,0,0,0,0,0,-1.4016,-1.4019,-1.4036,-1.4024,-1.4025,-1.4059,-1.4015,-1.401,-1.4014,-1.4009,-1.4,-1.3997,-1.3979,-1.4006,-1.4009,-1.4034,-1.3981,-1.4074,-1.4078,-1.4081,-1.4131,-1.414,-1.4147,0,0,0,0,0,-1.4015,-1.4051,-1.4037,-1.4039,-1.4046,-1.406,-1.4061,-1.4039,-1.4016,-1.4033,-1.4022,-1.3997,-1.403,-1.4009,-1.4012,-1.4038,-1.4073,-1.4077,-1.4081,-1.4128,-1.4138,-1.4147,0,0,0,0,0,0,-1.4067,-1.4049,-1.4033,-1.4067,-1.4065,-1.4052,-1.4072,-1.4051,-1.4057,-1.4052,-1.4025,-1.4024,-1.4053,-1.4049,-1.4025,-1.408,-1.4047,-1.4052,-1.4082,-1.4091,-1.4099,-1.4099,-1.3982,0,0,0,0,0,-1.4082,-1.4095,-1.408,-1.4111,-1.4111,-1.4092,-1.4098,-1.4081,-1.4079,-1.4078,-1.4069,-1.4068,-1.4077,-1.4085,-1.4093,-1.4131,-1.4128,-1.4151,-1.4158,-1.4165,-1.4169,-1.4188,-1.4197,-1.4097,-1.4097,-1.4097,0,0,-1.4114,-1.4106,-1.4116,-1.4121,-1.4118,-1.4132,-1.4092,-1.4109,-1.4118,-1.408,-1.4104,-1.4098,-1.4095,-1.4127,-1.414,-1.4123,-1.4196,-1.417,-1.4176,-1.4176,-1.4193,-1.4203,-1.4211,-1.41,-1.41,-1.4099,0,0,-1.4178,-1.4174,-1.4199,-1.4197,-1.4193,-1.418,-1.4186,-1.4176,-1.417,-1.4193,-1.4164,-1.4177,-1.4195,-1.4193,-1.4195,-1.4259,-1.4236,-1.4263,-1.4303,-1.4322,-1.4329,-1.4336,-1.4357,-1.4366,-1.4268,-1.4268,-1.4268,0,-1.4218,-1.4237,-1.4215,-1.4233,-1.4235,-1.4202,-1.4227,-1.4226,-1.4225,-1.4228,-1.4209,-1.423,-1.4226,-1.4257,-1.4272,-1.4276,-1.4281,-1.4263,-1.433,-1.4337,-1.4343,-1.4363,-1.4371,-1.4271,-1.427,-1.427,-1.427,0,-1.4285,-1.43,-1.4321,-1.432,-1.4325,-1.4347,-1.4327,-1.4336,-1.4319,-1.4309,-1.4332,-1.4326,-1.4332,-1.4339,-1.4323,-1.4367,-1.4357,-1.4335,-1.4301,-1.4356,-1.4374,-1.4382,-1.4275,-1.4274,-1.4273,-1.4272,0,0,-1.438,-1.4367,-1.4375,-1.4373,-1.4367,-1.4377,-1.4398,-1.4403,-1.441,-1.4411,-1.4427,-1.4443,-1.4423,-1.4425,-1.4409,-1.4426,-1.4475,-1.4401,-1.4401,-1.4413,-1.4521,-1.4536,-1.4546,-1.4461,-1.4462,-1.4463,-1.4521,0,-1.444,-1.4473,-1.4453,-1.4489,-1.4501,-1.447,-1.4488,-1.4486,-1.4477,-1.4486,-1.4476,-1.4487,-1.446,-1.4461,-1.4476,-1.4466,-1.4496,-1.4462,-1.4474,-1.4475,-1.4473,-1.4555,-1.4571,-1.4626,-1.4528,-1.4529,-1.453,0,-1.4514,-1.4517,-1.4554,-1.4544,-1.4549,-1.4565,-1.4568,-1.4578,-1.4575,-1.4567,-1.4569,-1.455,-1.4569,-1.4537,-1.4563,-1.454,-1.4544,-1.454,-1.4541,-1.454,-1.4504,-1.4554,-1.4643,-1.465,-1.4542,-1.4541,-1.454,0,-1.4577,-1.4591,-1.4614,-1.4615,-1.4605,-1.4616,-1.4613,-1.4608,-1.4612,-1.4616,-1.4618,-1.4624,-1.4627,-1.4632,-1.4614,-1.4593,-1.4642,-1.4609,-1.4635,-1.4635,-1.4644,-1.4643,-1.4733,-1.4651,-1.4651,-1.4651,-1.4651,0,-1.4645,-1.4668,-1.4642,-1.4657,-1.4682,-1.466,-1.4685,-1.4678,-1.4675,-1.4687,-1.4661,-1.4674,-1.465,-1.466,-1.4647,-1.4669,-1.4672,-1.4665,-1.4661,-1.4666,-1.4666,-1.4667,-1.4661,-1.4653,-1.4653,-1.4652,-1.4652,0,-1.4718,-1.4702,-1.4725,-1.4714,-1.4711,-1.473,-1.472,-1.4733,-1.4723,-1.4739,-1.4741,-1.4725,-1.4735,-1.4718,-1.4727,-1.4718,-1.4748,-1.474,-1.4749,-1.4745,-1.4771,-1.4768,-1.4862,-1.4872,-1.4787,-1.4787,-1.4788,0,-1.4761,-1.4778,-1.4768,-1.4774,-1.4772,-1.4783,-1.4787,-1.4766,-1.4772,-1.477,-1.4782,-1.4791,-1.4796,-1.4814,-1.4803,-1.4809,-1.4799,-1.4831,-1.4799,-1.4804,-1.4797,-1.4795,-1.4796,-1.4837,-1.4838,-1.4839,-1.484,0,-1.4838,-1.4829,-1.4836,-1.484,-1.4846,-1.4849,-1.4849,-1.4856,-1.4834,-1.4842,-1.4852,-1.4856,-1.4864,-1.4872,-1.4876,-1.4873,-1.4852,-1.485,-1.4856,-1.486,-1.4864,-1.486,-1.4764,-1.4847,-1.4847,-1.4846,-1.4846,-1.4845,-1.4896,-1.4909,-1.4904,-1.4912,-1.4911,-1.4912,-1.4923,-1.4914,-1.4922,-1.4926,-1.4914,-1.4927,-1.4924,-1.4926,-1.4925,-1.4935,-1.4921,-1.493,-1.4932,-1.4934,-1.4937,-1.4865,-1.4936,-1.4936,-1.4935,-1.4935,-1.4935,0,-1.497,-1.4965,-1.4973,-1.4974,-1.4981,-1.4962,-1.4962,-1.4969,-1.498,-1.4979,-1.4984,-1.4995,-1.5003,-1.4993,-1.4999,-1.5009,-1.5,-1.5011,-1.5009,-1.5008,-1.495,-1.4943,-1.5018,-1.5018,-1.5018,-1.5018,-1.5018,-1.5018,-1.5009,-1.503,-1.5021,-1.504,-1.5036,-1.5047,-1.5048,-1.5049,-1.5048,-1.5061,-1.5068,-1.5061,-1.5056,-1.5062,-1.5068,-1.5065,-1.5067,-1.5081,-1.5075,-1.502,-1.5012,-1.5004,-1.4998,-1.5083,-1.5083,-1.5131,-1.5132,-1.5132]},{"header":{"parameterUnit":"m.s-1","parameterCategory":1,"la1":30.2991,"la2":30.254,"lo1":-89.0895,"lo2":-89.0444,"dy":0.0017,"dx":0.0017,"nx":28,"ny":28,"refTime":"2026-02-08T09:00:00:Z","depth":0,"parameterNumber":3,"parameterNumberName":"V-component_of_WINDS"},"data":[0,0,0,0,0,0,0,0,0,0,0,0,0,0,0,0,0,0,0,0,0,0,0,0,0,0,0,0,0,0,0,0,0,0,0,0,0,0,0,0,0,0,0,0,0,0,0,0,0,0,0,0,0,0,0,0,0,0,0.8421,0.8421,0,0.8444,0.8444,0.8445,0.8575,0.8578,0.8581,0.8584,0.8603,0.8601,0.8598,0,0,0,0,0,0,0,0,0,0,0,0,0,0.8487,0.8485,0.8421,0.8421,0.8422,0.8444,0.8444,0.8445,0.8574,0.8578,0.8582,0.8586,0.8604,0.8601,0.8598,0,0,0,0,0,0,0,0,0,0,0,0,0,0.8478,0.8484,0.8421,0.8489,0.8496,0.8444,0.8444,0.8445,0.8574,0.8578,0.8583,0.8587,0.8605,0.8601,0.8598,0.8481,0,0,0.8587,0.8585,0,0,0,0,0,0,0,0,0.8479,0.8476,0.8479,0.8484,0.8491,0.8512,0.8475,0.8457,0.8572,0.8544,0.8584,0.859,0.8568,0.8568,0.8562,0.8482,0.8483,0.8586,0.8584,0.8582,0.8581,0,0,0,0,0,0,0,0.8479,0.8476,0.843,0.8479,0.8486,0.8518,0.8522,0.8472,0.8529,0.8547,0.8556,0.8557,0.8573,0.8565,0.8563,0.8483,0.8586,0.8583,0.8581,0.8579,0.831,0.8306,0,0,0,0,0,0,0.8471,0.8475,0.8429,0.8431,0.8497,0.8513,0.8517,0.85,0.853,0.8539,0.8553,0.8563,0.8569,0.8567,0.8564,0.8431,0.8583,0.8579,0.8577,0.8315,0.8309,0.8304,0,0,0,0,0,0,0.8472,0.8465,0.8429,0.8456,0.8453,0.8507,0.8486,0.8498,0.8491,0.8535,0.8546,0.8535,0.8573,0.857,0.8502,0.8434,0.8577,0.8574,0.8321,0.8314,0.8307,0.8162,0,0,0,0,0,0,0.8473,0.8465,0.8421,0.8454,0.8451,0.8365,0.8482,0.8495,0.8485,0.8498,0.8521,0.8529,0.8576,0.8506,0.8498,0.8431,0.8571,0.8328,0.8318,0.8309,0.8173,0.8151,0.8131,0,0,0,0,0,0.8475,0.8378,0.8419,0.8412,0.8399,0.8361,0.836,0.8417,0.8479,0.8435,0.8464,0.8529,0.8443,0.8498,0.849,0.8421,0.8332,0.8321,0.831,0.8183,0.8155,0.8132,0,0,0,0,0,0,0.8334,0.8384,0.8429,0.834,0.8346,0.8383,0.833,0.8386,0.8372,0.8385,0.8456,0.846,0.8381,0.8395,0.8456,0.8311,0.8398,0.8385,0.8305,0.8279,0.8258,0.8256,0.8568,0,0,0,0,0,0.8293,0.826,0.8305,0.8222,0.8223,0.8276,0.8262,0.8306,0.8313,0.8316,0.834,0.8344,0.8318,0.8299,0.8278,0.8176,0.8183,0.8125,0.8104,0.8087,0.8074,0.8022,0.7997,0.8267,0.8267,0.8268,0,0,0.8207,0.8231,0.8205,0.8195,0.8204,0.8168,0.8277,0.8233,0.8206,0.8309,0.8247,0.8264,0.8274,0.8189,0.8152,0.8197,0.8001,0.8072,0.8058,0.8055,0.8008,0.7982,0.796,0.826,0.8261,0.8262,0,0,0.8033,0.8047,0.7981,0.7989,0.8003,0.8039,0.8023,0.8053,0.8069,0.8008,0.8085,0.8054,0.8008,0.8012,0.8007,0.7837,0.7896,0.7828,0.7718,0.7667,0.7646,0.7627,0.7567,0.7544,0.7815,0.7815,0.7815,0,0.7924,0.7873,0.7939,0.7891,0.7884,0.7978,0.7912,0.7916,0.7921,0.7914,0.7965,0.791,0.7923,0.784,0.7799,0.7793,0.7776,0.7825,0.7644,0.7626,0.7609,0.7552,0.7529,0.7807,0.7808,0.7808,0.7809,0,0.7739,0.7702,0.7647,0.7653,0.764,0.7582,0.7639,0.7618,0.7664,0.7694,0.7632,0.7651,0.7636,0.762,0.7662,0.7543,0.7571,0.7632,0.7721,0.7574,0.7522,0.7501,0.7795,0.7798,0.78,0.7802,0,0,0.7473,0.7519,0.7497,0.7502,0.7525,0.7498,0.7445,0.7433,0.7413,0.7414,0.7371,0.7332,0.7389,0.7384,0.7428,0.7383,0.7248,0.745,0.7451,0.7412,0.7119,0.7072,0.7046,0.7288,0.7284,0.7281,0.7118,0,0.7307,0.7221,0.728,0.7183,0.7151,0.7241,0.7195,0.7204,0.7232,0.7207,0.7238,0.7209,0.7286,0.7284,0.7243,0.7273,0.719,0.7285,0.7248,0.7245,0.7242,0.7019,0.697,0.6815,0.7098,0.7094,0.7092,0,0.71,0.7094,0.6995,0.7028,0.7016,0.6974,0.6968,0.6944,0.6957,0.698,0.6976,0.7033,0.6983,0.7072,0.7004,0.7067,0.7056,0.7068,0.7063,0.7061,0.7159,0.701,0.6767,0.6744,0.706,0.7063,0.7065,0,0.6917,0.6885,0.6822,0.6823,0.6859,0.6827,0.684,0.6858,0.6847,0.6842,0.6835,0.6823,0.6816,0.6805,0.6857,0.6916,0.6782,0.6875,0.6799,0.6797,0.6766,0.6767,0.6516,0.6758,0.6759,0.6759,0.6759,0,0.6724,0.6659,0.6741,0.6702,0.6633,0.6701,0.6631,0.6654,0.6669,0.6635,0.6712,0.6678,0.6749,0.6723,0.6763,0.6701,0.6697,0.6714,0.6725,0.6707,0.6705,0.67,0.6712,0.6753,0.6754,0.6755,0.6756,0,0.6507,0.6559,0.6496,0.6537,0.6546,0.6493,0.6527,0.6492,0.6527,0.6484,0.6477,0.653,0.6503,0.6555,0.6534,0.6561,0.6474,0.6502,0.647,0.6478,0.6399,0.6406,0.6137,0.6105,0.6367,0.6364,0.6362,0,0.638,0.6333,0.637,0.6354,0.6364,0.6337,0.6328,0.6394,0.638,0.6392,0.6356,0.6336,0.6324,0.6277,0.6313,0.6298,0.6326,0.6233,0.6324,0.6307,0.6325,0.6327,0.6322,0.6213,0.621,0.6208,0.6205,0,0.6149,0.6178,0.6162,0.6156,0.6143,0.614,0.6143,0.6125,0.6195,0.6176,0.6152,0.6142,0.6123,0.6102,0.6096,0.6109,0.6168,0.6177,0.6159,0.6139,0.6122,0.6131,0.6418,0.6182,0.6185,0.6186,0.6188,0.6188,0.5974,0.5937,0.5958,0.5938,0.5948,0.5949,0.592,0.5951,0.5932,0.5923,0.5963,0.5929,0.5944,0.5943,0.5949,0.5923,0.5965,0.5938,0.5931,0.5923,0.5911,0.6127,0.5922,0.5923,0.5924,0.5924,0.5925,0,0.5747,0.5766,0.5747,0.5751,0.5735,0.5795,0.5802,0.5784,0.5755,0.5765,0.5752,0.5724,0.5705,0.574,0.5726,0.5699,0.5726,0.5693,0.5695,0.5697,0.5874,0.5892,0.5671,0.5671,0.5671,0.5672,0.5672,0.5672,0.5628,0.557,0.5601,0.5549,0.5568,0.5537,0.5536,0.5537,0.5546,0.5512,0.5498,0.5522,0.5542,0.5531,0.5516,0.5527,0.5518,0.5475,0.5495,0.566,0.5685,0.5708,0.5725,0.5473,0.5473,0.5321,0.5319,0.5318]}]]